STARLINK-1042 (44747 NORAD) Tracking and Keplerian Element Data

This shows tracking and keplerian element data for the satellite.

Feedback or suggestion? Click here.




ElementValue
Catalog44747
NameSTARLINK-1042
Epoch Orbit2180
Epoch Day93.91667824
Epoch Year2020
RAAN233.5181
Inclination53.022
Eccentricity0.0001632
Argument of Perigee83.6637
Mean Anonmoly28.9757
Mean Motion15.05568562
Decay Rate0.00030082
L11 44747U 19074AL 20093.91667824 .00030082 00000-0 20756-2 0 9999
L22 44747 53.0220 233.5181 0001632 83.6637 28.9757 15.05568562 21800

Live tracking and technical data element details for STARLINK-1042 (NORAD 44747). STARLINK-1042 can be tracked NOW for your location showing map with azimuth and elevation plus other details from your city location.

Track the satellite on the map from your city or location and see movement details for azimuth, elevation, latitude, longitude, range, height, and movement on the map or in text.







IsCatalogInMostPopularTable: catalog: 44747, numindb: 42
Update: records affected: 1



GetName: 44747 STARLINK-1042

Hit Count: updated at: Fri, 10 Apr 2020 19:14:19 GMT